Simultaneous Nadir Overpasses (SNOs) Predictions

Prediction of SNOs between METOP-A and TERRA Satellite Orbit:

Table of predicted SNOs for the next 14.0 days since TLE Epoch: 11/21/2020
Index Date (METOP-A) Time (METOP-A) Lat,Lon (METOP-A) SZA (METOP-A ) Date (TERRA) Time (TERRA) Lat,Lon (TERRA) SZA (TERRA ) Distance(km) Time Diff (sec)
1 11/22/2020 17:53:05 81.48, -44.51 104.40 11/22/2020 17:54:12 81.31, -41.32 104.67 56.14 67
2 11/22/2020 18:43:34 -81.37, 127.34 75.18 11/22/2020 18:43:36 -81.37, 127.38 75.17 0.85 2
3 11/22/2020 19:34:14 81.36, -64.88 104.88 11/22/2020 19:33:02 81.37, -64.88 104.85 1.61 72
4 11/25/2020 13:27:16 81.37, 26.39 105.35 11/25/2020 13:28:23 81.38, 26.37 105.39 0.76 67
5 11/25/2020 14:17:56 -81.36,-166.09 74.63 11/25/2020 14:17:50 -81.37,-166.05 74.62 1.24 6
6 11/28/2020 09:01:37 81.37, 92.92 105.84 11/28/2020 09:02:36 81.38, 92.88 105.88 1.86 59
7 11/28/2020 09:52:18 -81.37, -99.91 74.17 11/28/2020 09:52:04 -81.36, -99.90 74.19 1.23 14
8 12/01/2020 04:36:00 81.37, 159.05 106.24 12/01/2020 04:36:51 81.36, 158.95 106.25 1.92 51
9 12/01/2020 05:26:40 -81.36, -33.37 73.74 12/01/2020 05:26:18 -81.36, -33.42 73.76 0.85 22
10 12/04/2020 00:10:22 81.37,-134.45 106.61 12/04/2020 00:11:05 81.36,-134.63 106.61 3.06 43
